SCP
0 0 0 0 0 0 0 0 0 1 1 2 2 2 2 2 1 1 1 0 0 0 0 0 0 0 0 0 0 0 0 0 0 0 0 0 0 0 0 0 0 0 0
0 0 0 0 0 0 0 0 0 0 1 1 1 2 2 1 1 1 1 0 0 0 0 0 0 0 0 0 0 0 0 0 0 0 0 0 0 0 0 0 0 0 0
0 0 0 0 0 0 0 0 0 0 0 0 1 1 1 1 1 1 1 1 0 0 0 0 0 0 0 0 0 0 0 0 0 0 0 0 0 0 0 0 0 0 0
0 0 0 0 0 0 0 0 0 0 0 0 0 0 1 1 1 1 1 1 0 0 0 0 0 0 0 0 0 0 0 0 0 0 0 0 0 0 0 0 0 0 0
0 0 0 0 0 0 0 0 0 0 0 0 0 0 0 0 1 1 1 1 0 0 0 0 0 0 0 0 0 0 0 0 0 0 0 0 0 0 0 0 0 0 0
0 0 0 0 0 0 0 0 0 0 0 0 0 0 0 0 0 0 0 0 0 0 0 0 0 0 0 0 0 0 0 0 0 0 0 0 0 0 0 0 0 0 0
0 0 0 0 0 0 0 0 0 0 0 0 0 0 0 0 0 0 0 0 0 0 0 0 0 0 0 0 0 0 0 0 0 0 0 0 0 0 0 0 0 0 0
0 0 0 0 0 0 0 0 0 0 0 0 0 0 0 0 0 0 0 0 0 0 0 0 0 0 0 0 0 0 0 0 0 0 0 0 0 0 0 0 0 0 0
0 0 0 0 0 0 0 0 0 0 0 0 0 0 0 0 0 0 0 0 0 0 0 0 0 0 0 0 0 0 0 0 0 0 0 0 0 0 0 0 0 0 0
0 0 0 0 0 0 0 0 0 0 0 0 0 0 0 0 0 0 0 0 0 0 0 0 0 0 0 0 0 0 0 0 0 0 0 0 0 0 0 0 0 0 0
0 0 0 0 0 0 0 0 0 0 0 0 0 0 0 0 0 0 0 0 0 0 0 0 0 0 0 0 0 0 0 0 0 0 0 0 0 0 0 0 0 0 0
0 0 0 0 0 0 0 0 0 0 0 0 0 0 0 0 0 0 0 0 0 0 0 0 0 0 0 0 0 0 0 0 0 0 0 0 0 0 0 0 0 0 0
0 0 0 0 0 0 0 0 0 0 0 0 0 0 0 0 0 0 0 0 0 0 0 0 0 0 0 0 0 0 0 0 0 0 0 0 0 0 0 0 0 0 0
0 0 0 0 0 0 0 0 0 0 0 0 0 0 0 0 0 0 0 0 0 0 0 0 0 0 0 0 0 0 0 0 0 0 0 0 0 0 0 0 0 0 0
0 0 0 0 0 0 0 0 0 0 0 0 0 0 0 0 0 0 0 0 0 0 0 0 0 0 0 0 0 0 0 0 0 0 0 0 0 0 0 0 0 0 0
0 0 0 0 0 0 0 0 0 0 0 0 0 0 0 0 0 0 0 0 0 0 0 0 0 0 0 0 0 0 0 0 0 0 0 0 0 0 0 0 0 0 0
0 0 0 0 0 0 0 0 0 0 0 0 0 0 0 0 0 0 0 0 0 0 0 0 0 0 0 0 0 0 0 0 0 0 0 0 0 0 0 0 0 0 0
0 0 0 0 0 0 0 0 0 0 0 0 0 0 0 0 0 0 0 0 0 0 0 0 0 0 0 0 0 0 0 0 0 0 0 0 0 0 0 0 0 0 0
0 0 0 0 0 0 0 0 0 0 0 0 0 0 0 0 0 0 0 0 0 0 0 0 0 0 0 0 0 0 0 0 0 0 0 0 0 0 0 0 0 0 0
0 0 0 0 0 0 0 0 0 0 0 0 0 0 0 0 0 0 0 0 0 0 0 0 0 0 0 0 0 0 0 0 0 0 0 0 0 0 0 0 0 0 0
0 0 0 0 0 0 0 0 0 0 0 0 0 0 0 0 0 0 0 0 0 0 0 0 0 0 0 0 0 0 0 0 0 0 0 0 0 0 0 0 0 0 0
0 0 0 0 0 0 0 0 0 0 0 0 0 0 0 0 0 0 0 0 0 0 0 0 0 0 0 0 0 0 0 0 0 0 0 0 0 0 0 0 0 0 0
0 0 0 0 0 0 0 0 0 0 0 0 0 0 0 0 0 0 0 0 0 0 0 0 0 0 0 0 0 0 0 0 0 0 0 0 0 0 0 0 0 0 0
0 0 0 0 0 0 0 0 0 0 0 0 0 0 0 0 0 0 0 0 0 0 0 0 0 0 0 0 0 0 0 0 0 0 0 0 0 0 0 0 0 0 0
0 0 0 0 0 0 0 0 0 0 0 0 0 0 0 0 0 0 0 0 0 0 0 0 0 0 0 0 0 0 0 0 0 0 0 0 0 0 0 0 0 0 0
0 0 0 0 0 0 0 0 0 0 0 0 0 0 0 0 0 0 0 0 0 0 0 0 0 0 0 0 0 0 0 0 0 0 0 0 0 0 0 0 0 0 0
Wind_Speed
7 7 8 8 8 8 7 6 6 7 7 8 8 8 8 7 7 6 6 6 5 5 5 5 6 6 5 5 4 5 5 5 4 1 2 5 8 9 9 8 8 8 8
6 6 7 8 9 9 9 8 8 7 7 8 8 8 9 9 8 7 6 6 5 5 5 5 6 5 6 5 5 6 5 6 5 6 4 4 7 8 9 9 8 8 8
8 7 8 8 8 9 9 9 9 9 9 9 8 8 9 9 9 8 7 6 5 4 3 4 4 5 6 5 6 5 4 5 5 8 6 5 5 6 8 9 10 8 9
10 9 9 10 10 9 10 10 10 10 10 9 9 9 9 10 10 10 8 6 5 4 2 2 2 4 5 6 5 4 2 4 8 9 9 6 5 5 6 8 8 6 7
10 10 10 10 10 10 10 10 10 10 11 9 8 8 8 9 10 10 9 8 6 5 3 1 2 4 5 4 3 1 2 6 8 9 9 7 5 5 5 5 8 7 7
10 10 11 11 11 11 10 10 10 10 10 9 9 8 8 9 10 11 10 7 5 5 3 3 5 4 5 6 8 8 7 8 9 8 8 8 6 4 3 5 7 8 6
10 10 11 11 11 11 13 12 10 10 10 10 9 9 8 7 9 9 10 7 6 5 5 4 5 6 5 5 7 10 12 13 11 8 10 7 5 4 3 4 5 6 5
11 12 11 11 12 11 11 11 10 9 9 8 8 8 7 7 6 6 8 8 7 6 6 6 7 8 6 6 6 7 7 7 8 8 8 7 5 3 3 5 6 5 5
14 12 12 12 12 11 10 10 8 8 8 8 8 8 8 6 4 4 5 5 7 7 7 8 9 9 10 9 7 8 8 7 9 12 11 11 10 7 5 4 5 5 4
15 13 13 12 13 13 11 10 9 7 7 8 9 8 7 5 2 4 6 4 7 6 6 8 11 11 12 9 8 8 9 8 9 10 9 8 7 7 8 6 3 2 5
14 14 15 14 13 14 12 9 8 9 9 8 8 7 7 6 4 6 8 5 5 4 6 7 8 15 13 9 7 7 9 9 8 7 6 5 4 4 6 6 5 2 4
14 15 15 14 14 14 11 9 8 8 8 8 7 9 8 6 6 7 10 9 5 3 4 5 9 16 13 10 7 11 13 10 6 5 5 4 4 6 6 6 6 6 6
15 16 15 15 13 12 12 11 9 7 7 8 8 8 8 5 5 9 10 9 7 3 4 5 14 16 13 8 11 15 11 5 5 5 5 4 6 7 6 5 5 5 6
15 15 14 14 13 12 9 9 9 8 7 7 7 8 6 4 5 6 6 5 5 2 1 7 15 14 9 10 10 9 6 4 5 5 6 7 6 5 4 4 4 4 5
15 14 13 12 12 10 10 9 9 8 7 6 5 5 4 4 4 7 6 5 5 4 3 5 8 8 8 7 6 5 4 4 4 6 7 7 5 4 4 4 4 4 5
13 12 10 9 8 8 8 8 11 11 10 9 7 4 1 2 6 7 8 10 10 9 5 6 8 8 8 8 7 5 4 4 4 6 6 5 5 4 4 4 4 5 6
12 11 8 7 7 7 7 7 6 7 9 10 9 6 6 8 8 8 9 12 12 11 7 6 6 7 7 7 6 6 5 5 5 5 5 5 4 5 4 3 3 4 5
11 10 8 6 6 6 6 6 5 5 6 6 6 8 10 10 9 10 12 11 7 6 5 4 5 6 6 7 7 6 6 6 5 5 5 5 5 5 4 4 3 4 5
7 5 4 4 4 4 5 5 4 5 4 4 6 8 8 10 9 9 10 6 8 6 4 2 3 4 5 6 6 6 7 6 5 5 5 5 5 5 4 4 4 5 4
5 4 5 3 3 3 3 4 4 4 4 5 5 8 8 7 6 5 5 5 5 5 4 3 2 3 4 6 7 7 7 6 5 5 5 5 4 5 5 5 6 4 2
4 2 3 3 1 1 2 3 4 4 4 4 4 7 10 7 7 8 7 6 5 5 4 3 2 3 5 6 7 8 9 6 5 5 6 4 4 4 4 5 6 5 4
4 3 2 2 1 2 2 3 3 4 4 5 6 6 6 5 7 8 7 6 6 5 4 3 4 3 5 6 7 7 8 7 6 5 6 5 3 4 4 5 5 5 5
5 4 3 2 2 3 2 2 3 3 3 4 5 6 6 5 7 8 8 7 7 7 6 5 5 4 4 6 6 6 7 8 6 5 6 5 4 3 3 4 5 4 5
5 4 3 2 1 2 2 3 3 3 4 4 4 5 6 5 7 9 9 8 8 7 7 6 5 5 6 6 6 6 6 7 8 6 6 6 5 4 3 3 4 5 4
3 2 1 0 1 1 2 3 4 4 4 4 5 6 7 7 8 9 9 10 10 9 9 7 5 5 7 9 8 6 8 9 8 7 6 4 5 5 5 5 4 4 4
3 2 1 1 1 1 2 3 4 5 6 6 7 7 8 9 10 11 10 9 9 8 7 7 7 7 8 7 8 10 10 11 10 6 4 4 4 4 4 4 5 5 5
Wind_Direction
333 332 327 323 323 321 317 323 333 332 332 325 312 296 280 267 258 250 252 266 277 289 297 301 301 297 290 282 269 257 243 226 220 160 113 127 120 118 113 112 114 106 107
315 313 311 313 314 312 310 315 317 314 313 314 312 305 291 280 269 259 257 268 279 288 302 311 312 312 307 296 282 262 241 219 185 154 132 126 121 121 120 118 115 109 107
271 269 272 277 283 287 291 296 300 301 301 303 303 302 298 291 283 272 260 256 262 276 297 311 320 324 316 306 291 270 245 214 159 143 133 122 112 119 119 116 113 113 111
261 259 259 261 263 267 271 274 277 280 283 285 290 294 294 293 285 275 266 252 249 255 260 287 325 337 329 314 303 282 228 158 139 136 132 128 118 119 122 126 125 128 131
261 258 257 256 255 256 259 261 264 267 272 274 279 285 291 290 281 279 269 253 235 235 220 203 76 56 27 355 332 335 132 129 131 131 132 130 130 134 135 141 140 139 125
272 269 265 260 258 257 256 256 258 261 263 265 269 274 281 289 306 304 281 261 236 227 201 169 138 120 85 58 61 69 94 121 129 130 135 136 133 134 132 144 142 142 142
291 284 278 269 265 261 260 258 252 253 254 255 260 263 268 279 291 287 269 258 232 216 188 178 167 134 134 110 87 80 79 86 102 118 125 126 130 140 142 156 163 160 147
294 292 290 284 277 269 262 257 253 252 254 257 260 263 263 272 287 274 257 253 241 215 186 172 150 150 152 146 122 99 89 88 107 111 114 114 122 145 173 164 149 136 127
293 292 292 290 288 283 275 266 259 256 254 256 261 256 257 262 270 252 233 247 244 220 187 169 158 157 156 156 133 116 105 96 98 112 117 121 121 116 122 128 130 131 130
295 295 291 285 281 279 277 274 272 264 258 256 257 256 258 255 226 198 201 237 246 224 183 163 164 156 159 160 144 136 129 129 126 120 120 125 119 97 83 82 87 137 143
296 297 294 289 283 278 270 264 265 266 264 259 265 271 266 253 209 184 188 213 250 242 190 168 158 154 158 157 150 144 145 141 135 131 127 123 112 95 80 70 56 57 136
298 294 290 286 284 281 273 266 259 261 261 258 256 259 259 242 213 188 192 199 213 262 250 181 156 159 160 159 152 149 154 151 144 142 139 140 124 99 89 81 68 56 82
296 290 286 282 277 271 267 265 260 252 250 252 252 254 252 230 192 188 195 193 189 219 271 204 157 156 152 148 150 155 164 172 154 151 145 129 111 112 108 98 90 78 70
289 284 279 276 272 266 257 253 250 244 238 239 247 256 255 220 185 186 194 173 139 132 242 155 144 146 144 134 145 160 182 181 157 146 124 114 115 127 138 143 139 124 98
284 280 275 270 265 261 253 244 242 236 225 223 241 252 250 225 197 192 185 161 136 118 137 161 149 145 141 143 155 172 181 151 139 122 121 129 144 161 160 159 149 133 122
282 277 271 265 259 253 249 248 230 224 217 213 221 229 199 155 157 166 160 136 125 135 173 186 158 152 151 153 161 164 156 144 133 127 134 149 163 159 142 148 158 149 144
279 276 269 264 258 250 242 236 230 216 213 206 204 189 162 146 144 147 143 134 139 154 193 192 158 155 155 157 159 156 155 145 135 138 151 156 149 138 139 158 161 136 134
284 278 273 264 254 245 235 226 220 203 189 189 176 156 143 139 137 141 138 126 139 172 204 188 159 158 157 157 158 158 151 144 146 155 158 151 146 148 154 160 150 138 131
296 286 283 277 257 236 223 216 210 197 191 185 155 137 130 120 117 140 149 148 162 182 202 204 168 161 156 153 150 143 140 148 160 155 149 148 154 155 159 164 131 125 144
312 299 293 289 263 226 202 196 191 185 179 177 169 151 146 144 136 148 165 156 163 182 206 208 190 169 155 147 138 137 143 153 159 153 146 156 161 164 165 150 136 149 187
331 332 271 273 252 193 181 175 167 169 166 162 162 146 154 157 149 156 162 165 173 190 208 215 222 180 150 141 140 146 152 154 162 156 151 169 172 163 149 143 147 173 183
341 349 358 12 77 112 134 148 158 162 157 143 137 136 145 155 147 154 163 171 182 200 212 225 232 198 159 152 148 155 157 157 169 162 153 171 164 156 155 156 166 180 165
352 10 44 61 83 103 121 134 144 146 140 138 143 150 164 165 153 159 170 179 186 198 212 217 227 209 168 154 151 159 162 159 166 161 154 161 162 165 164 162 168 168 164
349 357 27 62 97 122 137 149 157 159 157 158 162 168 174 177 171 171 174 185 191 200 208 210 217 206 175 155 156 168 168 155 159 162 164 163 166 173 174 165 170 178 179
340 351 7 268 220 189 180 179 183 183 182 183 183 183 183 180 177 177 180 186 192 199 199 200 204 200 180 169 169 161 144 140 148 157 161 174 179 181 182 180 183 193 195
334 338 313 270 255 209 182 182 187 184 178 176 177 177 176 173 172 173 179 183 191 198 196 195 197 188 179 176 153 133 134 133 133 137 160 180 197 198 194 200 202 205 211